TSC158 SKCG-SKRG

Flight info

Callsign TSC158
Flight time 0h 49m
Altitude 33000
Route ESKAB2A ESKAB DCT AKPEK AKPEK4C
Aircraft A321/M-SDE3FGHIRWY/LB1

Departure

Time 2026-05-07 03:31
Airport Rafael Nuñez International Airport (SKCG)

Arrival

Time 2026-05-07 04:21
Airport Jose Maria Córdova International Airport (SKRG)
Time Latitude Longitude Altitude Speed Heading
2026-05-07 03:07 10.44727 -75.51544 47 ft 0 kts 272°
2026-05-07 03:20 10.44726 -75.51526 51 ft 4 kts 272°
2026-05-07 03:21 10.44725 -75.51501 51 ft 4 kts 289°
2026-05-07 03:21 10.44714 -75.51489 45 ft 4 kts 10°
2026-05-07 03:21 10.44688 -75.51495 48 ft 3 kts
2026-05-07 03:21 10.44683 -75.51495 46 ft 0 kts 360°
2026-05-07 03:24 10.44685 -75.51495 49 ft 2 kts 360°
2026-05-07 03:24 10.44691 -75.51494 48 ft 2 kts
2026-05-07 03:25 10.44694 -75.51481 48 ft 2 kts 126°
2026-05-07 03:25 10.44666 -75.51478 49 ft 4 kts 169°
2026-05-07 03:25 10.44647 -75.51465 51 ft 3 kts 136°
2026-05-07 03:25 10.44634 -75.51424 51 ft 10 kts 88°
2026-05-07 03:26 10.44647 -75.51353 51 ft 9 kts 79°
2026-05-07 03:26 10.44638 -75.51297 51 ft 8 kts 120°
2026-05-07 03:26 10.44570 -75.51277 51 ft 15 kts 180°
2026-05-07 03:26 10.44436 -75.51281 51 ft 23 kts 182°
2026-05-07 03:27 10.44255 -75.51288 51 ft 29 kts 182°
2026-05-07 03:27 10.44054 -75.51297 51 ft 29 kts 182°
2026-05-07 03:27 10.43859 -75.51304 51 ft 28 kts 182°
2026-05-07 03:27 10.43670 -75.51312 49 ft 27 kts 182°
2026-05-07 03:28 10.43488 -75.51320 51 ft 26 kts 182°
2026-05-07 03:28 10.43314 -75.51327 51 ft 19 kts 183°
2026-05-07 03:28 10.43225 -75.51313 49 ft 12 kts 143°
2026-05-07 03:28 10.43169 -75.51257 51 ft 11 kts 136°
2026-05-07 03:29 10.43107 -75.51232 49 ft 9 kts 188°
2026-05-07 03:29 10.43069 -75.51269 51 ft 7 kts 264°
2026-05-07 03:29 10.43071 -75.51316 51 ft 6 kts 279°
2026-05-07 03:29 10.43095 -75.51335 51 ft 4 kts 355°
2026-05-07 03:30 10.43104 -75.51335 51 ft 1 kts 357°
2026-05-07 03:30 10.43131 -75.51335 51 ft 13 kts
2026-05-07 03:30 10.43466 -75.51321 50 ft 83 kts
2026-05-07 03:30 10.44249 -75.51288 49 ft 139 kts
2026-05-07 03:31 10.45330 -75.51245 229 ft 164 kts
2026-05-07 03:31 10.46424 -75.51194 926 ft 155 kts
2026-05-07 03:31 10.47495 -75.51139 1504 ft 154 kts
2026-05-07 03:31 10.48600 -75.51081 1772 ft 168 kts
2026-05-07 03:32 10.49846 -75.51067 1941 ft 187 kts 355°
2026-05-07 03:32 10.51033 -75.51692 2111 ft 208 kts 310°
2026-05-07 03:32 10.51494 -75.53119 2250 ft 227 kts 267°
2026-05-07 03:32 10.50893 -75.54670 2392 ft 252 kts 233°
2026-05-07 03:33 10.49683 -75.56039 2807 ft 266 kts 223°
2026-05-07 03:33 10.48295 -75.57315 3500 ft 271 kts 220°
2026-05-07 03:33 10.46871 -75.58584 4200 ft 274 kts 220°
2026-05-07 03:33 10.45446 -75.59892 4885 ft 278 kts 220°
2026-05-07 03:34 10.43893 -75.61061 5557 ft 279 kts 206°
2026-05-07 03:34 10.42100 -75.61805 6224 ft 279 kts 192°
2026-05-07 03:34 10.40186 -75.62097 6856 ft 279 kts 182°
2026-05-07 03:34 10.38241 -75.62250 7498 ft 282 kts 182°
2026-05-07 03:35 10.36277 -75.62408 8130 ft 284 kts 182°
2026-05-07 03:35 10.34297 -75.62571 8767 ft 287 kts 182°
2026-05-07 03:35 10.32295 -75.62736 9398 ft 290 kts 182°
2026-05-07 03:35 10.30277 -75.62902 9999 ft 292 kts 182°
2026-05-07 03:36 10.28242 -75.63067 10556 ft 295 kts 182°
2026-05-07 03:36 10.26135 -75.63237 10751 ft 313 kts 182°
2026-05-07 03:36 10.23894 -75.63417 10878 ft 332 kts 182°
2026-05-07 03:36 10.21539 -75.63608 11129 ft 345 kts 182°
2026-05-07 03:37 10.19128 -75.63806 11615 ft 350 kts 181°
2026-05-07 03:37 10.16691 -75.64006 12132 ft 353 kts 181°
2026-05-07 03:37 10.14228 -75.64209 12655 ft 357 kts 181°
2026-05-07 03:37 10.11736 -75.64414 13170 ft 361 kts 181°
2026-05-07 03:38 10.09224 -75.64619 13685 ft 364 kts 181°
2026-05-07 03:38 10.06685 -75.64823 14128 ft 368 kts 181°
2026-05-07 03:38 10.04124 -75.65029 14587 ft 371 kts 181°
2026-05-07 03:38 10.01536 -75.65237 15043 ft 375 kts 181°
2026-05-07 03:39 9.98924 -75.65452 15504 ft 378 kts 181°
2026-05-07 03:39 9.96289 -75.65671 15965 ft 382 kts 181°
2026-05-07 03:39 9.93631 -75.65889 16419 ft 385 kts 182°
2026-05-07 03:39 9.90946 -75.66109 16875 ft 389 kts 182°
2026-05-07 03:40 9.88236 -75.66330 17331 ft 392 kts 182°
2026-05-07 03:40 9.85501 -75.66551 17780 ft 396 kts 182°
2026-05-07 03:40 9.82778 -75.66770 18215 ft 400 kts 182°
2026-05-07 03:40 9.79993 -75.66995 18596 ft 403 kts 182°
2026-05-07 03:41 9.77186 -75.67222 18969 ft 406 kts 182°
2026-05-07 03:41 9.74360 -75.67452 19338 ft 409 kts 182°
2026-05-07 03:41 9.71508 -75.67687 19704 ft 413 kts 182°
2026-05-07 03:41 9.68636 -75.67922 20059 ft 416 kts 182°
2026-05-07 03:42 9.65743 -75.68156 20409 ft 418 kts 182°
2026-05-07 03:42 9.62830 -75.68389 20761 ft 421 kts 182°
2026-05-07 03:42 9.59896 -75.68625 21105 ft 424 kts 182°
2026-05-07 03:42 9.56946 -75.68860 21442 ft 427 kts 182°
2026-05-07 03:43 9.53972 -75.69098 21773 ft 430 kts 182°
2026-05-07 03:43 9.50980 -75.69341 22120 ft 433 kts 182°
2026-05-07 03:43 9.47969 -75.69587 22454 ft 435 kts 182°
2026-05-07 03:43 9.44944 -75.69835 22777 ft 438 kts 182°
2026-05-07 03:44 9.42928 -75.69999 22984 ft 439 kts 182°
2026-05-07 03:44 9.38836 -75.70333 23402 ft 443 kts 182°
2026-05-07 03:44 9.35758 -75.70583 23674 ft 445 kts 182°
2026-05-07 03:44 9.33709 -75.70749 23851 ft 446 kts 182°
2026-05-07 03:45 9.30608 -75.71000 24131 ft 448 kts 182°
2026-05-07 03:45 9.27494 -75.71252 24424 ft 449 kts 182°
2026-05-07 03:45 9.23357 -75.71584 24802 ft 451 kts 182°
2026-05-07 03:45 9.20222 -75.71839 25089 ft 453 kts 182°
2026-05-07 03:46 9.18099 -75.72012 25277 ft 454 kts 182°
2026-05-07 03:46 9.14946 -75.72270 25568 ft 455 kts 182°
2026-05-07 03:46 9.11790 -75.72528 25848 ft 456 kts 182°
2026-05-07 03:46 9.08624 -75.72784 26120 ft 457 kts 182°
2026-05-07 03:47 9.05452 -75.73041 26391 ft 458 kts 183°
2026-05-07 03:47 9.02267 -75.73297 26650 ft 460 kts 183°
2026-05-07 03:47 8.99073 -75.73554 26906 ft 461 kts 183°
2026-05-07 03:47 8.95870 -75.73813 27166 ft 462 kts 183°
2026-05-07 03:48 8.92702 -75.74068 27415 ft 464 kts 183°
2026-05-07 03:48 8.89480 -75.74329 27669 ft 465 kts 183°
2026-05-07 03:48 8.86247 -75.74590 27921 ft 467 kts 183°
2026-05-07 03:48 8.83006 -75.74850 28175 ft 468 kts 183°
2026-05-07 03:49 8.79756 -75.75108 28430 ft 469 kts 184°
2026-05-07 03:49 8.76501 -75.75367 28709 ft 469 kts 184°
2026-05-07 03:49 8.73242 -75.75628 28962 ft 470 kts 184°
2026-05-07 03:49 8.69976 -75.75893 29185 ft 471 kts 184°
2026-05-07 03:50 8.66704 -75.76161 29429 ft 473 kts 184°
2026-05-07 03:50 8.63418 -75.76428 29658 ft 474 kts 184°
2026-05-07 03:50 8.60126 -75.76695 29883 ft 475 kts 184°
2026-05-07 03:50 8.56822 -75.76961 30093 ft 477 kts 184°
2026-05-07 03:51 8.53512 -75.77228 30277 ft 478 kts 184°
2026-05-07 03:51 8.50190 -75.77498 30483 ft 479 kts 184°
2026-05-07 03:51 8.46864 -75.77769 30723 ft 480 kts 184°
2026-05-07 03:51 8.43542 -75.78039 31026 ft 478 kts 184°
2026-05-07 03:52 8.40230 -75.78307 31319 ft 477 kts 184°
2026-05-07 03:52 8.36925 -75.78571 31625 ft 476 kts 184°
2026-05-07 03:52 8.33626 -75.78835 31914 ft 475 kts 184°
2026-05-07 03:52 8.30378 -75.79093 32201 ft 474 kts 184°
2026-05-07 03:53 8.27091 -75.79352 32500 ft 473 kts 184°
2026-05-07 03:53 8.23811 -75.79615 32815 ft 472 kts 184°
2026-05-07 03:53 8.20535 -75.79880 32949 ft 470 kts 184°
2026-05-07 03:54 8.14141 -75.80405 32969 ft 456 kts 184°
2026-05-07 03:54 8.07824 -75.80911 32972 ft 454 kts 184°
2026-05-07 03:55 8.01542 -75.81412 32973 ft 452 kts 184°
2026-05-07 03:55 7.95300 -75.81047 32976 ft 450 kts 169°
2026-05-07 03:56 7.89124 -75.79956 32988 ft 451 kts 169°
2026-05-07 03:56 7.82944 -75.78879 32987 ft 451 kts 169°
2026-05-07 03:57 7.76762 -75.77800 33002 ft 450 kts 170°
2026-05-07 03:57 7.70587 -75.76727 33009 ft 450 kts 170°
2026-05-07 03:58 7.64422 -75.75660 33044 ft 449 kts 170°
2026-05-07 03:58 7.58277 -75.74582 33043 ft 448 kts 170°
2026-05-07 03:59 7.52141 -75.73514 33039 ft 447 kts 170°
2026-05-07 03:59 7.46007 -75.72450 33065 ft 447 kts 170°
2026-05-07 04:00 7.39875 -75.71385 33060 ft 447 kts 170°
2026-05-07 04:00 7.33741 -75.70323 33094 ft 447 kts 169°
2026-05-07 04:01 7.27620 -75.69253 33100 ft 446 kts 169°
2026-05-07 04:01 7.21511 -75.68194 33100 ft 445 kts 169°
2026-05-07 04:02 7.15413 -75.67130 33095 ft 444 kts 169°
2026-05-07 04:02 7.09366 -75.66075 33087 ft 444 kts 169°
2026-05-07 04:03 7.03278 -75.65020 33110 ft 444 kts 169°
2026-05-07 04:03 7.00230 -75.64493 32818 ft 446 kts 170°
2026-05-07 04:03 6.97170 -75.63965 32191 ft 445 kts 169°
2026-05-07 04:03 6.94129 -75.63440 31634 ft 442 kts 169°
2026-05-07 04:04 6.91105 -75.62914 31120 ft 440 kts 169°
2026-05-07 04:04 6.88092 -75.62388 30575 ft 439 kts 169°
2026-05-07 04:04 6.85090 -75.61864 30011 ft 437 kts 169°
2026-05-07 04:04 6.82100 -75.61344 29441 ft 434 kts 169°
2026-05-07 04:05 6.79136 -75.60828 28906 ft 431 kts 169°
2026-05-07 04:05 6.76191 -75.60321 28387 ft 428 kts 169°
2026-05-07 04:05 6.73268 -75.59824 27862 ft 425 kts 169°
2026-05-07 04:05 6.70364 -75.59334 27351 ft 422 kts 169°
2026-05-07 04:06 6.67478 -75.58850 26844 ft 419 kts 169°
2026-05-07 04:06 6.64612 -75.58371 26355 ft 416 kts 169°
2026-05-07 04:06 6.61771 -75.57894 25880 ft 413 kts 169°
2026-05-07 04:06 6.58945 -75.57414 25404 ft 410 kts 169°
2026-05-07 04:07 6.56141 -75.56934 24938 ft 407 kts 169°
2026-05-07 04:07 6.53357 -75.56458 24476 ft 405 kts 169°
2026-05-07 04:07 6.50585 -75.55986 24013 ft 403 kts 169°
2026-05-07 04:07 6.47832 -75.55518 23515 ft 401 kts 169°
2026-05-07 04:08 6.45093 -75.55054 23020 ft 397 kts 169°
2026-05-07 04:08 6.42421 -75.54601 22564 ft 393 kts 169°
2026-05-07 04:08 6.39726 -75.54181 22097 ft 390 kts 173°
2026-05-07 04:08 6.37021 -75.54083 21636 ft 388 kts 177°
2026-05-07 04:09 6.34330 -75.54035 21166 ft 385 kts 177°
2026-05-07 04:09 6.31657 -75.53990 20705 ft 383 kts 176°
2026-05-07 04:09 6.29002 -75.53949 20238 ft 380 kts 176°
2026-05-07 04:09 6.26368 -75.53907 19771 ft 378 kts 176°
2026-05-07 04:10 6.23746 -75.53862 19301 ft 375 kts 176°
2026-05-07 04:10 6.21139 -75.53812 18730 ft 375 kts 176°
2026-05-07 04:10 6.18533 -75.53762 17973 ft 371 kts 175°
2026-05-07 04:10 6.16000 -75.53719 17534 ft 358 kts 175°
2026-05-07 04:11 6.13516 -75.53676 17099 ft 356 kts 175°
2026-05-07 04:11 6.11049 -75.53642 16635 ft 352 kts 176°
2026-05-07 04:11 6.08608 -75.53646 16202 ft 349 kts 177°
2026-05-07 04:11 6.06187 -75.53673 15611 ft 348 kts 178°
2026-05-07 04:12 6.03776 -75.53709 15254 ft 345 kts 178°
2026-05-07 04:12 6.01385 -75.53744 14878 ft 342 kts 178°
2026-05-07 04:12 5.99012 -75.53775 14468 ft 340 kts 178°
2026-05-07 04:12 5.96667 -75.53800 14259 ft 331 kts 178°
2026-05-07 04:13 5.94443 -75.53824 14106 ft 307 kts 178°
2026-05-07 04:13 5.92381 -75.53847 13824 ft 288 kts 177°
2026-05-07 04:13 5.90451 -75.53809 13515 ft 269 kts 166°
2026-05-07 04:13 5.88830 -75.53095 13353 ft 245 kts 137°
2026-05-07 04:14 5.87810 -75.51820 13087 ft 231 kts 112°
2026-05-07 04:14 5.87489 -75.50293 12755 ft 227 kts 91°
2026-05-07 04:14 5.87504 -75.48710 12483 ft 224 kts 90°
2026-05-07 04:14 5.87518 -75.47175 12282 ft 217 kts 90°
2026-05-07 04:15 5.87567 -75.45668 11922 ft 216 kts 81°
2026-05-07 04:15 5.88054 -75.44249 11773 ft 218 kts 62°
2026-05-07 04:15 5.89034 -75.43072 11642 ft 224 kts 42°
2026-05-07 04:15 5.90418 -75.42320 11447 ft 230 kts 19°
2026-05-07 04:16 5.92022 -75.42143 11210 ft 235 kts
2026-05-07 04:16 5.93663 -75.42159 10933 ft 236 kts
2026-05-07 04:16 5.95297 -75.42174 10663 ft 234 kts
2026-05-07 04:16 5.96908 -75.42186 10405 ft 227 kts
2026-05-07 04:17 5.98453 -75.42197 10132 ft 217 kts
2026-05-07 04:17 5.99923 -75.42206 9875 ft 206 kts
2026-05-07 04:17 6.01325 -75.42215 9606 ft 198 kts
2026-05-07 04:17 6.02680 -75.42224 9358 ft 189 kts
2026-05-07 04:18 6.03953 -75.42232 9124 ft 179 kts
2026-05-07 04:18 6.05178 -75.42240 8908 ft 174 kts
2026-05-07 04:18 6.06384 -75.42247 8699 ft 173 kts
2026-05-07 04:18 6.07587 -75.42255 8486 ft 172 kts
2026-05-07 04:19 6.08783 -75.42262 8268 ft 171 kts
2026-05-07 04:19 6.09975 -75.42270 8047 ft 172 kts
2026-05-07 04:19 6.11164 -75.42279 7819 ft 170 kts
2026-05-07 04:19 6.12341 -75.42288 7544 ft 172 kts
2026-05-07 04:20 6.13532 -75.42296 7317 ft 170 kts
2026-05-07 04:20 6.14713 -75.42302 7065 ft 169 kts
2026-05-07 04:20 6.15854 -75.42306 6979 ft 145 kts 360°
2026-05-07 04:21 6.16846 -75.42313 7001 ft 23 kts 357°
2026-05-07 04:21 6.16968 -75.42342 7000 ft 14 kts 342°
2026-05-07 04:21 6.17042 -75.42375 7017 ft 9 kts 332°
2026-05-07 04:21 6.17092 -75.42402 7013 ft 9 kts 329°
2026-05-07 04:22 6.17146 -75.42435 7016 ft 9 kts 328°
2026-05-07 04:22 6.17182 -75.42475 7016 ft 7 kts 288°
2026-05-07 04:22 6.17184 -75.42541 7017 ft 14 kts 269°
2026-05-07 04:22 6.17211 -75.42612 7020 ft 11 kts 335°
2026-05-07 04:23 6.17289 -75.42621 7018 ft 9 kts 352°
2026-05-07 04:23 6.17330 -75.42651 7021 ft 7 kts 307°
2026-05-07 04:23 6.17350 -75.42686 7018 ft 5 kts 296°
2026-05-07 04:23 6.17361 -75.42712 7019 ft 3 kts 287°
2026-05-07 04:24 6.17358 -75.42724 7020 ft 1 kts 251°
2026-05-07 04:24 6.17342 -75.42740 7020 ft 6 kts 221°
2026-05-07 04:24 6.17311 -75.42760 7018 ft 4 kts 211°
2026-05-07 04:24 6.17294 -75.42770 7020 ft 2 kts 211°
2026-05-07 04:25 6.17290 -75.42772 7019 ft 0 kts 211°